Regional Weather Roundup
Issued by NWS

Home | Current Version | Previous Version | Text Only | Print | Product List | Glossary On
Versions: 1 2 3 4 5 6 7 8 9 10 11 12 13 14 15 16 17 18 19 20 21 22 23 24 25 26 27 28 29 30 31 32 33 34 35 36 37 38 39 40 41 42 43 44 45 46 47 48 49 50
462
ASUS43 KMPX 292010
RWRMN
WEATHER ROUNDUP FOR MINNESOTA
NATIONAL WEATHER SERVICE TWIN CITIES/CHANHASSEN MN
300 PM CDT FRI APR 29 2016


NOTE: "FAIR" INDICATES FEW OR NO CLOUDS BELOW 12,000 FEET WITH NO
SIGNIFICANT WEATHER AND/OR OBSTRUCTIONS TO VISIBILITY. N/A MEANS
CURRENT SKY AND/OR WEATHER CONDITIONS ARE NOT AVAILABLE.

MNZ060>063-068>070-292100-
   Twin Cities Metro

CITY           SKY/WX    TMP DP  RH WIND       PRES   REMARKS
TWIN CITIES    MOSUNNY   56  36  47 NE12      30.11F
ST PAUL        MOSUNNY   57  36  45 NE8       30.12F
CRYSTAL        SUNNY     57  32  38 E7        30.11F
BLAINE         MOSUNNY   57  34  41 E8        30.12F
EDEN PRAIRIE   SUNNY     57  33  40 MISG      30.10F
SOUTH ST PAUL  SUNNY     56  35  44 NE5       30.11F
LAKE ELMO      FAIR      57  36  44 E9        30.12F
$$
MNZ001>005-007-008-013>017-022>024-027-028-292100-
   Northwest Minnesota

CITY           SKY/WX    TMP DP  RH WIND       PRES   REMARKS
BEMIDJI        SUNNY     58  32  38 NE9G16    30.12F
HALLOCK        SUNNY     63  27  25 NE13G18   30.18F
ROSEAU         SUNNY     57  36  44 E15G21    30.20F
WARROAD        SUNNY     54  34  47 E9        30.22F
THIEF RVR FALL SUNNY     57  30  35 NE15G23   30.16F
CROOKSTON      SUNNY     61  30  31 E12G22    30.14F
FOSSTON        SUNNY     57  30  35 NE13G21   30.13F
DETROIT LAKES  SUNNY     61  32  33 E5        30.11R
MOORHEAD       SUNNY     63  32  31 NE13G20   30.12R
PARK RAPIDS    SUNNY     60  29  30 N9        30.10F
MAHNOMEN       FAIR      59  33  37 NE13G23   30.11S
$$
MNZ006-009>011-018-025>026-292100-
   North Central Minnesota

CITY           SKY/WX    TMP DP  RH WIND       PRES   REMARKS
BAUDETTE       MOSUNNY   58  32  37 N14       30.19F
FLAG ISLAND    SUNNY     52  30  43 N13       30.21S
INTL FALLS     SUNNY     55  31  39 VRB7G16   30.19F
WASKISH        SUNNY     59  34  38 NE12      30.16F
BIG FORK       PTSUNNY   61  30  31 N8        30.15F
LONGVILLE      SUNNY     59  30  33 N8        30.12F
GRAND RAPIDS   MOSUNNY   55  28  35 N9        30.14F
CRANE LAKE     MOSUNNY   52  30  43 CALM      30.22S
ORR            MOSUNNY   57  27  30 N6        30.15F
COOK           MOSUNNY   54  34  47 E7        30.18S
WALKER         FAIR      55  31  40 E7        30.13F
$$
MNZ012-019>021-037-292100-
   Northeast Minnesota

CITY           SKY/WX    TMP DP  RH WIND       PRES   REMARKS
DULUTH         MOSUNNY   51  30  44 E18       30.16F
ELY            CLOUDY    48  28  46 NE8       30.19S
HIBBING        MOSUNNY   53  29  39 E5        30.15F
EVELETH        MOSUNNY   55  30  38 E5        30.18S
DULUTH HARBOR  SUNNY     43  36  75 NE10      30.19F
TWO HARBORS    PTSUNNY   52  37  58 E9        30.17S
SILVER BAY     PTSUNNY   52  32  46 E8        30.17S
GRAND MARAIS     N/A     41  31  67 SW3       30.22R
G MARAIS ARPRT CLOUDY    46  28  49 SE7       30.19R
$$
MNZ029>031-032-039>041-046>048-054>057-064-292100-
   West Central Minnesota

CITY           SKY/WX    TMP DP  RH WIND       PRES   REMARKS
FERGUS FALLS   SUNNY     59  34  38 E7        30.08F
WHEATON        MOSUNNY   61  39  44 E8        30.13F
MORRIS         MOSUNNY   57  39  51 E8G16     30.11F
ALEXANDRIA     CLOUDY    59  34  39 E9G18     30.11F
ELBOW LAKE     FAIR      57  35  43 E8        30.11S
WADENA         SUNNY     59  34  38 NE10G16   30.10F
GLENWOOD       PTSUNNY   55  37  50 E12       30.11F
APPLETON       CLOUDY    57  37  47 E9        30.12F
BENSON         CLOUDY    57  36  44 E6        30.12F
ORTONVILLE     CLOUDY    55  37  50 E8        30.12S
MADISON        CLOUDY    54  37  54 E10       30.12S
WILLMAR        FAIR      57  39  51 E8G16     30.13F
$$
MNZ033>034-036-042>043-049>051-058-059-292100-
   Central Minnesota

CITY           SKY/WX    TMP DP  RH WIND       PRES   REMARKS
ST CLOUD       MOSUNNY   56  32  40 CALM      30.12R
SAUK CENTRE    FAIR      57  35  43 NE9       30.11F
PAYNESVILLE    CLOUDY    55  35  46 E10       30.12F
AITKIN         SUNNY     61  25  25 NE12      30.11F
PINE RIVER     SUNNY     59  36  41 E5        30.14S
BRAINERD       SUNNY     59  31  34 E10G18    30.11F
STAPLES        SUNNY     61  28  29 E3        30.10F
LONG PRAIRIE   FAIR      57  32  38 NE10      30.12R
LITTLE FALLS   SUNNY     57  32  38 E10G17    30.13R
LITCHFIELD     MOSUNNY   55  36  47 E8G17     30.12F
BUFFALO        MOSUNNY   56  34  43 E13       30.13S
MAPLE LAKE     MOSUNNY   57  38  48 NE9       30.14S
HUTCHINSON     MOSUNNY   56  40  55 NE15G23   30.12F
$$
MNZ037-044-045-052-053-292100-
   East Central Minnesota

CITY           SKY/WX    TMP DP  RH WIND       PRES   REMARKS
PRINCETON        N/A     59  34  38 E13       30.13R
MORA           SUNNY     55  32  41 E8G18     30.14R
CAMBRIDGE      SUNNY     59  37  44 NE8       30.10S
RUSH CITY      SUNNY     59  32  36 E9        30.11S
MOOSE LAKE     SUNNY     57  32  38 E8        30.12F
HINCKLEY       FAIR      59  34  38 NE9G18    30.11F
CLOQUET        SUNNY     52  27  37 SE8G20    30.15F
MCGREGOR       SUNNY     57  32  38 NE8       30.13F
$$
MNZ071>073-080-081-089-090-097-098-292100-
   Southwest Minnesota

CITY           SKY/WX    TMP DP  RH WIND       PRES   REMARKS
MONTEVIDEO     PTSUNNY   57  39  51 E12       30.14S
GRANITE FALLS  CLOUDY    57  40  52 E9        30.13F
CANBY          CLOUDY    56  43  63 E9G18     30.13F
MARSHALL       CLOUDY    52  39  61 E9        30.12F
REDWOOD FALLS  PTSUNNY   54  36  50 E14       30.11F
OLIVIA         PTSUNNY   55  37  50 E12G17    30.11F
PIPESTONE      CLOUDY    48  37  66 E9        30.12R
WINDOM         CLOUDY    52  39  62 E8        30.12R
WORTHINGTON    CLOUDY    49  39  68 E12       30.13R
JACKSON        CLOUDY    50  36  57 E9        30.13R
TRACY          CLOUDY    53  41  65 E12       30.12R
SLAYTON        CLOUDY    48  40  74 E12       30.13R
$$
MNZ065>067-074>077-082>085-091>093-292100-
   South Central Minnesota

CITY           SKY/WX    TMP DP  RH WIND       PRES   REMARKS
MANKATO        MOSUNNY   55  37  50 SE8       30.12R
NEW ULM        PTSUNNY   52  37  58 E8        30.12R
ST JAMES       PTSUNNY   48  36  61 E7        30.13R
FAIRMONT       CLOUDY    50  37  62 E10       30.12S
GLENCOE        SUNNY     56  40  56 NE8       30.11F
FARIBAULT      MOSUNNY   55  37  50 NE6       30.12S
OWATONNA       CLOUDY    52  37  58 E10       30.12R
WASECA         PTSUNNY   54  39  58 NE8       30.13R
ALBERT LEA     CLOUDY    50  39  66 E12       30.12R
$$
MNZ078>079-086>088-094>096-292100-
   Southeast Minnesota

CITY           SKY/WX    TMP DP  RH WIND       PRES   REMARKS
ROCHESTER      CLOUDY    48  39  71 E14       30.13F
RED WING       MOSUNNY   57  37  47 S12       30.10F
STANTON        MOSUNNY   57  37  47 NE3       30.10F
DODGE CENTER   CLOUDY    52  41  66 E9        30.12R
WINONA         PTSUNNY   52  41  66 NE5       30.13F
AUSTIN         CLOUDY    48  39  71 E8        30.13R
PRESTON        CLOUDY    47  39  71 NE9       30.12S
$$
ABBREVIATIONS USED IN REMARKS
   TC - TEMPERATURES IN CELSIUS
  WCI - WIND CHILL INDEX
   HX - HEAT INDEX
  VSB - VISIBILITY
$$




USA.gov is the U.S. government's official web portal to all federal, state and local government web resources and services.